Home   Weather   Hannover   Past weeks

Flag for Germany Past Weather in Hannover, Lower Saxony, Germany — Yesterday and Last 2 Weeks

Now
30 °F

Clear.


Feels Like: 21 °F
Forecast: 24 / 30 °F
Wind: 10 mph from East

Location: Hannover

Current Time: Jan 21, 2017 at 11:06:57 pm

Latest Report: Jan 21, 2017 at 10:50 pm


Visibility: 10 mi

Pressure: 30.42 "Hg

Humidity: 93%

Dew Point: 28 °F

Location of HannoverLocation

Past Weather in Hannover — Graph

°F

Hannover Temperature Yesterday

Maximum temperature yesterday: 39 °F (at 11:50 am)
Minimum temperature yesterday: 28 °F (at 1:20 am)
Average temperature yesterday: 33 °F

High & Low Weather Summary for the Past Weeks

 TemperatureHumidityPressure
High43 °F (Jan 11, 3:20 pm)100% (Jan 7, 8:20 pm)30.74 "Hg (Jan 7, 8:20 pm)
Low19 °F (Jan 6, 9:20 pm)48% (Jan 20, 12:20 pm)28.94 "Hg (Jan 13, 4:20 am)
Average32 °F86%30.16 "Hg
* Reported Jan 6 9:20 pm — Jan 21 9:50 pm, Hannover, Weather by CustomWeather, © 2017

Note: Actual official high and low records may vary slightly from our data, if they occured in-between our weather recording intervals... More about our weather records

Advertising

Hannover Weather History for the Previous 24 Hours

Scroll right to see more
 ConditionsComfort  
Time TempWeatherWind HumidityBarometerVisibility
9:50 pm
Sat, Jan 21
30 °FClear.8 mph93%30.42 "Hg10 mi
9:20 pm28 °FClear.6 mph93%30.42 "Hg10 mi
8:50 pm30 °FClear.5 mph86%30.42 "Hg10 mi
8:20 pm32 °FClear.6 mph87%30.42 "Hg10 mi
7:50 pm32 °FClear.6 mph87%30.42 "Hg10 mi
7:20 pm32 °FClear.5 mph87%30.42 "Hg10 mi
6:50 pm30 °FClear.7 mph86%30.42 "Hg10 mi
6:20 pm32 °FClear.6 mph87%30.42 "Hg10 mi
5:50 pm34 °FClear.6 mph81%30.42 "Hg10 mi
5:20 pm36 °FPassing clouds.6 mph81%30.42 "HgN/A
4:50 pm36 °FPassing clouds.6 mph81%30.42 "HgN/A
4:20 pm37 °FPassing clouds.6 mph75%30.42 "HgN/A
3:50 pm39 °FPassing clouds.7 mph70%30.45 "HgN/A
3:20 pm39 °FScattered clouds.7 mph75%30.45 "HgN/A
2:50 pm39 °FPartly sunny.12 mph75%30.45 "HgN/A
2:20 pm41 °FPartly sunny.10 mph70%30.45 "HgN/A
1:50 pm39 °FPartly sunny.8 mph75%30.45 "HgN/A
1:20 pm37 °FPartly sunny.9 mph81%30.48 "HgN/A
12:50 pm39 °FPartly sunny.8 mph75%30.48 "HgN/A
12:20 pm37 °FPartly sunny.9 mph81%30.48 "HgN/A
11:50 am37 °FPartly sunny.9 mph81%30.48 "HgN/A
11:20 am37 °FPartly sunny.5 mph81%30.51 "HgN/A
10:50 am36 °FPartly sunny.3 mph81%30.51 "HgN/A
10:20 am36 °FPartly sunny.3 mph87%30.51 "HgN/A
9:50 am34 °FPartly sunny.5 mph87%30.51 "HgN/A
9:20 am34 °FPartly sunny.3 mph93%30.51 "HgN/A
8:50 am34 °FPartly sunny.3 mph87%30.51 "HgN/A
8:20 am34 °FPartly sunny.5 mph87%30.48 "HgN/A
7:50 am34 °FPassing clouds.6 mph93%30.48 "Hg6 mi
7:20 am34 °FPassing clouds.1 mph93%30.48 "Hg6 mi
6:50 am34 °FPassing clouds.2 mph93%30.48 "Hg6 mi
6:20 am34 °FPassing clouds.3 mph93%30.51 "Hg6 mi
5:50 am34 °FPassing clouds.3 mph93%30.51 "Hg6 mi
5:20 am34 °FPassing clouds.2 mph93%30.51 "Hg6 mi
4:50 am34 °FPassing clouds.2 mph93%30.51 "Hg6 mi
4:20 am34 °FPassing clouds.1 mph93%30.51 "HgN/A
3:50 am34 °FPassing clouds.1 mph93%30.51 "HgN/A
3:20 am34 °FPassing clouds.1 mph93%30.51 "HgN/A
2:50 am34 °FPassing clouds.1 mph93%30.51 "HgN/A
2:20 am34 °FPassing clouds.1 mph93%30.51 "HgN/A
1:50 am34 °FLight rain. Passing clouds.2 mph93%30.54 "HgN/A
1:20 am34 °FLight rain. Passing clouds.2 mph93%30.54 "HgN/A
12:50 am34 °FLight rain. Passing clouds.1 mph93%30.54 "HgN/A
12:20 am34 °FLight rain. Passing clouds.1 mph93%30.54 "HgN/A
11:50 pm
Fri, Jan 20
34 °FPassing clouds.1 mph93%30.54 "HgN/A
11:20 pm34 °FPassing clouds.1 mph93%30.54 "HgN/A
Weather by CustomWeather, © 2017

See weather overviewHow to use our weather pages